When you browse on this site, cookies collect data to enhance your experience and personalize the content and advertising you see.
Visit our Privacy Policy to learn more. By continuing to use the site, you agree to this use of cookies and data.
  • In Czech Republic
  • List of Countries
  • For 7 days
  • Water Temperature
  • Satellite Maps
  • Weather Map
  • Weather Widgets
  • user-avatar
    Login

    Hourly Weather Armawir

    Today, 24 May, Friday

    Time Temperature Precipitation Wind Pressure Humidity
    00:00 +19°C° 0.1 mm 1 mps 688 mmHg 61%
    01:00 +19°C° 0.1 mm 1 mps 688 mmHg 62%
    02:00 +18°C° 0.1 mm 1 mps 687 mmHg 64%
    03:00 +18°C° 0 mm 1 mps 687 mmHg 65%
    04:00 +18°C° 0 mm 1 mps 687 mmHg 64%
    05:00 +19°C° 0 mm 1 mps 687 mmHg 63%
    06:00 +19°C° 0 mm 2 mps 687 mmHg 61%
    07:00 +20°C° 0 mm 2 mps 687 mmHg 56%
    08:00 +22°C° 0 mm 3 mps 687 mmHg 50%
    09:00 +25°C° 0 mm 3 mps 687 mmHg 44%
    10:00 +26°C° 0.1 mm 3 mps 687 mmHg 41%
    11:00 +27°C° 0.1 mm 3 mps 687 mmHg 37%
    12:00 +29°C° 0.1 mm 3 mps 687 mmHg 34%
    13:00 +29°C° 0.2 mm 3 mps 687 mmHg 32%
    14:00 +30°C° 0.2 mm 3 mps 687 mmHg 31%
    15:00 +30°C° 0.2 mm 4 mps 687 mmHg 30%
    16:00 +30°C° 0.1 mm 3 mps 687 mmHg 30%
    17:00 +30°C° 0.1 mm 3 mps 688 mmHg 31%
    18:00 +30°C° 0.1 mm 2 mps 688 mmHg 31%
    19:00 +28°C° 0.1 mm 2 mps 688 mmHg 37%
    20:00 +25°C° 0.1 mm 2 mps 688 mmHg 43%
    21:00 +21°C° 0.1 mm 2 mps 688 mmHg 49%
    22:00 +21°C° 0.1 mm 2 mps 688 mmHg 50%
    23:00 +20°C° 0.1 mm 2 mps 688 mmHg 51%

    Tomorrow, 25 May, Saturday

    Time Temperature Precipitation Wind Pressure Humidity
    00:00 +20°C° 0.1 mm 2 mps 688 mmHg 51%
    01:00 +19°C° 0 mm 2 mps 688 mmHg 51%
    02:00 +19°C° 0 mm 2 mps 688 mmHg 51%
    03:00 +19°C° 0 mm 2 mps 688 mmHg 50%
    04:00 +19°C° 0 mm 2 mps 688 mmHg 48%
    05:00 +20°C° 0 mm 2 mps 688 mmHg 46%
    06:00 +20°C° 0 mm 2 mps 689 mmHg 44%
    07:00 +24°C° 0 mm 3 mps 689 mmHg 39%
    08:00 +26°C° 0 mm 3 mps 689 mmHg 33%
    09:00 +28°C° 0 mm 4 mps 689 mmHg 27%
    10:00 +30°C° 0 mm 4 mps 689 mmHg 25%
    11:00 +32°C° 0 mm 4 mps 689 mmHg 22%
    12:00 +34°C° 0 mm 5 mps 689 mmHg 20%
    13:00 +34°C° 0 mm 4 mps 688 mmHg 20%
    14:00 +34°C° 0 mm 4 mps 688 mmHg 20%
    15:00 +34°C° 0 mm 4 mps 688 mmHg 20%
    16:00 +33°C° 0.2 mm 4 mps 687 mmHg 24%
    17:00 +30°C° 0.2 mm 4 mps 687 mmHg 28%
    18:00 +29°C° 0.2 mm 4 mps 687 mmHg 33%
    19:00 +27°C° 0.1 mm 4 mps 687 mmHg 36%
    20:00 +25°C° 0.1 mm 3 mps 687 mmHg 40%
    21:00 +23°C° 0.1 mm 2 mps 687 mmHg 44%
    22:00 +21°C° 0 mm 2 mps 687 mmHg 46%
    23:00 +20°C° 0 mm 2 mps 687 mmHg 47%

    Day after tomorrow, 26 May, Sunday

    Time Temperature Precipitation Wind Pressure Humidity
    00:00 +20°C° 0 mm 2 mps 687 mmHg 49%
    01:00 +19°C° 0 mm 2 mps 687 mmHg 49%
    02:00 +19°C° 0 mm 2 mps 687 mmHg 49%
    03:00 +19°C° 0 mm 2 mps 686 mmHg 50%
    04:00 +19°C° 0 mm 2 mps 687 mmHg 50%
    05:00 +20°C° 0 mm 2 mps 687 mmHg 50%
    06:00 +20°C° 0 mm 2 mps 687 mmHg 49%
    07:00 +23°C° 0 mm 2 mps 687 mmHg 44%
    08:00 +25°C° 0 mm 2 mps 687 mmHg 38%
    09:00 +27°C° 0 mm 2 mps 687 mmHg 33%
    10:00 +28°C° 0 mm 3 mps 687 mmHg 30%
    11:00 +29°C° 0 mm 3 mps 687 mmHg 28%
    12:00 +32°C° 0 mm 4 mps 687 mmHg 25%
    13:00 +31°C° 0 mm 3 mps 687 mmHg 23%
    14:00 +33°C° 0 mm 3 mps 686 mmHg 22%
    15:00 +33°C° 0 mm 3 mps 686 mmHg 20%
    16:00 +31°C° 0 mm 3 mps 686 mmHg 22%
    17:00 +30°C° 0 mm 2 mps 686 mmHg 24%
    18:00 +30°C° 0 mm 2 mps 686 mmHg 25%
    19:00 +27°C° 0 mm 2 mps 687 mmHg 29%
    20:00 +25°C° 0 mm 3 mps 687 mmHg 32%
    21:00 +22°C° 0 mm 3 mps 688 mmHg 35%
    22:00 +21°C° 0 mm 3 mps 688 mmHg 40%
    23:00 +19°C° 0 mm 3 mps 688 mmHg 46%

    27 May, Monday

    Time Temperature Precipitation Wind Pressure Humidity
    00:00 +18°C° 0 mm 3 mps 688 mmHg 51%
    01:00 +18°C° 0 mm 3 mps 688 mmHg 53%
    02:00 +17°C° 0 mm 3 mps 688 mmHg 54%
    03:00 +17°C° 0 mm 3 mps 688 mmHg 55%
    04:00 +17°C° 0 mm 2 mps 689 mmHg 55%
    05:00 +18°C° 0 mm 2 mps 689 mmHg 55%
    06:00 +18°C° 0 mm 2 mps 689 mmHg 54%
    07:00 +20°C° 0 mm 2 mps 689 mmHg 48%
    08:00 +23°C° 0 mm 2 mps 690 mmHg 41%
    09:00 +25°C° 0 mm 2 mps 690 mmHg 34%
    10:00 +26°C° 0 mm 2 mps 690 mmHg 31%
    11:00 +27°C° 0 mm 2 mps 690 mmHg 28%
    12:00 +28°C° 0 mm 2 mps 690 mmHg 25%
    13:00 +29°C° 0 mm 2 mps 689 mmHg 24%
    14:00 +29°C° 0 mm 2 mps 689 mmHg 23%
    15:00 +30°C° 0 mm 2 mps 689 mmHg 23%
    16:00 +30°C° 0 mm 2 mps 689 mmHg 24%
    17:00 +29°C° 0 mm 2 mps 690 mmHg 25%
    18:00 +29°C° 0 mm 1 mps 690 mmHg 26%
    19:00 +27°C° 0 mm 2 mps 690 mmHg 31%
    20:00 +24°C° 0 mm 2 mps 690 mmHg 35%
    21:00 +21°C° 0 mm 3 mps 691 mmHg 40%
    22:00 +20°C° 0 mm 3 mps 691 mmHg 43%
    23:00 +20°C° 0 mm 3 mps 691 mmHg 46%

    28 May, Tuesday

    Time Temperature Precipitation Wind Pressure Humidity
    00:00 +19°C° 0 mm 2 mps 691 mmHg 49%
    01:00 +18°C° 0 mm 2 mps 691 mmHg 51%
    02:00 +18°C° 0 mm 2 mps 691 mmHg 53%
    03:00 +17°C° 0 mm 2 mps 691 mmHg 55%
    04:00 +18°C° 0 mm 2 mps 691 mmHg 55%
    05:00 +18°C° 0 mm 2 mps 691 mmHg 55%
    06:00 +19°C° 0 mm 2 mps 691 mmHg 54%
    07:00 +21°C° 0 mm 1 mps 691 mmHg 49%
    08:00 +23°C° 0 mm 1 mps 691 mmHg 43%
    09:00 +25°C° 0 mm 1 mps 692 mmHg 37%
    10:00 +26°C° 0 mm 1 mps 691 mmHg 34%
    11:00 +27°C° 0 mm 1 mps 691 mmHg 31%
    12:00 +29°C° 0 mm 2 mps 691 mmHg 28%
    13:00 +29°C° 0 mm 2 mps 691 mmHg 27%
    14:00 +30°C° 0 mm 2 mps 691 mmHg 25%
    15:00 +30°C° 0 mm 2 mps 691 mmHg 24%
    16:00 +30°C° 0 mm 2 mps 691 mmHg 26%
    17:00 +29°C° 0 mm 2 mps 691 mmHg 27%
    18:00 +29°C° 0 mm 2 mps 691 mmHg 29%
    19:00 +27°C° 0 mm 2 mps 691 mmHg 36%
    20:00 +24°C° 0 mm 2 mps 691 mmHg 43%
    21:00 +21°C° 0 mm 2 mps 692 mmHg 50%
    22:00 +20°C° 0 mm 2 mps 691 mmHg 54%
    23:00 +19°C° 0 mm 2 mps 691 mmHg 57%

    29 May, Wednesday

    Time Temperature Precipitation Wind Pressure Humidity
    00:00 +18°C° 0 mm 2 mps 691 mmHg 60%
    01:00 +18°C° 0 mm 2 mps 691 mmHg 61%
    02:00 +17°C° 0 mm 2 mps 691 mmHg 63%
    03:00 +17°C° 0 mm 2 mps 691 mmHg 64%
    04:00 +17°C° 0 mm 2 mps 691 mmHg 62%
    05:00 +18°C° 0 mm 2 mps 691 mmHg 60%
    06:00 +20°C° 0 mm 1 mps 692 mmHg 57%
    07:00 +21°C° 0 mm 1 mps 691 mmHg 51%
    08:00 +23°C° 0 mm 1 mps 691 mmHg 45%
    09:00 +25°C° 0 mm 1 mps 691 mmHg 38%
    10:00 +26°C° 0 mm 1 mps 691 mmHg 34%
    11:00 +27°C° 0 mm 1 mps 691 mmHg 30%
    12:00 +29°C° 0 mm 2 mps 690 mmHg 26%
    13:00 +29°C° 0 mm 2 mps 690 mmHg 24%
    14:00 +30°C° 0 mm 2 mps 690 mmHg 22%
    15:00 +31°C° 0 mm 2 mps 690 mmHg 20%
    16:00 +30°C° 0 mm 2 mps 690 mmHg 21%
    17:00 +30°C° 0 mm 1 mps 690 mmHg 23%
    18:00 +29°C° 0 mm 1 mps 690 mmHg 24%
    19:00 +27°C° 0 mm 1 mps 690 mmHg 29%
    20:00 +24°C° 0 mm 1 mps 690 mmHg 35%
    21:00 +22°C° 0 mm 1 mps 690 mmHg 40%
    22:00 +21°C° 0 mm 1 mps 690 mmHg 46%
    23:00 +20°C° 0 mm 2 mps 690 mmHg 51%
    Show more